www.pogodaiklimat.ru

Погода и климат >> Архив погоды >> Австралия >> Северная территория >> Ладжаману


ПОГОДА в Ладжаману

  • Прогноз погоды в Ладжаману
  • Монитор погоды в Ладжаману

АРХИВ ПОГОДЫ в Ладжаману

Время (UTC), дата Ветер
(напр.,м/с)
 
Видим.   Явления Облачность Т
(С)
Тd
(С)
f
(%)
Тe
(С)
Тes
(С)
Комфортность P
(гПа)
Po
(гПа)
Тmin
(С)
Tmax
(С)
R
(мм)
R24
(мм)
S
(см)
11 15.01 В 2 н/о н/о +34.3 +12.6 27 +35 +35 очень
жарко
1003.6 968.9
14 15.01 С 4 н/о н/о +32.5 +17.5 41 +36 +36 очень
душно
1005.7 970.9
17 15.01 С 3 н/о н/о +30.4 +17.1 45 +34 +34 очень
душно
1004.7 970.0
20 15.01 СЗ 3 н/о н/о +27.7 +18.1 56 +32 +32 очень
душно
1005.1 970.4
23 15.01 СЗ 5 н/о н/о +31.2 +19.5 50 +37 +37 очень
душно
1007.7 972.9
02 16.01 З 3 н/о н/о +35.7 +16.4 32 +38 +38 очень
душно
1007.1 972.3
05 16.01 С 5 н/о н/о +38.8 +14.6 24 +40 +40 очень
душно
1003.5 968.8
08 16.01 ЮВ 8 н/о н/о +36.0 +14.6 28 +37 +37 душно 1001.8 967.2
11 16.01 З 4 н/о н/о +29.5 +17.3 48 +34 +34 очень
душно
1005.3 970.6
14 16.01 З 2 н/о н/о +28.1 +18.5 56 +33 +33 очень
душно
1006.2 971.4
17 16.01 З 2 н/о н/о +27.0 +19.1 62 +32 +32 очень
душно
1004.0 969.3
20 16.01 С 3 н/о н/о +26.7 +19.3 64 +32 +32 очень
душно
1005.7 970.9
23 16.01 СЗ 4 н/о н/о +30.3 +20.0 54 +37 +37 очень
душно
1007.6 972.8
02 17.01 ЮЗ 4 н/о н/о +36.4 +16.0 30 +38 +38 очень
душно
1006.8 972.0
05 17.01 Ю 6 н/о н/о +38.7 +15.7 26 +40 +40 очень
душно
1003.2 968.5
08 17.01 Ю 3 н/о н/о +32.5 +15.9 37 +35 +35 душно 1002.8 968.1
11 17.01 штиль 0 н/о н/о +30.8 +16.8 43 +34 +34 очень
душно
1003.3 968.6
14 17.01 СЗ 2 н/о н/о +28.8 +20.5 61 +36 +36 очень
душно
1004.8 970.1
17 17.01 СЗ 2 н/о н/о +27.2 +20.8 68 +34 +34 очень
душно
1003.4 968.7
20 17.01 С 2 н/о н/о +27.0 +20.6 68 +34 +34 очень
душно
1004.5 969.8
23 17.01 З 4 н/о н/о +30.4 +21.2 58 +38 +38 очень
душно
1006.4 971.6
02 18.01 З 4 н/о н/о +36.2 +17.4 33 +39 +39 очень
душно
1006.0 971.2
05 18.01 СВ 3 н/о н/о +39.7 +13.3 21 +40 +40 очень
душно
1003.1 968.4
08 18.01 С 7 н/о н/о +36.3 +14.9 28 +38 +38 очень
душно
1001.4 966.8
11 18.01 С 3 н/о н/о +32.8 +17.8 41 +37 +37 очень
душно
1004.2 969.5
14 18.01 СЗ 2 н/о н/о +30.5 +19.5 52 +36 +36 очень
душно
1006.6 971.8
17 18.01 С 3 н/о н/о +29.9 +19.9 55 +36 +36 очень
душно
1005.9 971.1
20 18.01 С 4 н/о н/о +27.8 +20.4 64 +34 +34 очень
душно
1006.3 971.5
23 18.01 С 4 н/о н/о +31.5 +20.8 53 +39 +39 очень
душно
1007.8 973.0
02 19.01 З 3 н/о н/о +35.9 +18.0 35 +40 +40 очень
душно
1007.6 972.8
05 19.01 В 4 н/о н/о +40.6 +11.7 18 +40 +40 очень
жарко
1005.2 970.5
08 19.01 С 5 н/о н/о +40.5 +13.2 20 +40 +40 очень
жарко
1002.8 968.1
11 19.01 С 4 н/о н/о +34.4 +15.8 33 +37 +37 очень
душно
1005.3 970.6
14 19.01 СЗ 2 н/о н/о +31.7 +17.6 43 +36 +36 очень
душно
1007.0 972.2
17 19.01 СЗ 2 н/о н/о +29.4 +18.8 53 +35 +35 очень
душно
1005.5 970.7
20 19.01 СЗ 1 н/о н/о +27.7 +19.0 59 +33 +33 очень
душно
1006.0 971.2
23 19.01 В 5 н/о н/о +33.5 +18.0 40 +38 +38 очень
душно
1008.5 973.6
02 20.01 Ю 3 н/о н/о +37.9 +15.1 26 +39 +39 очень
душно
1007.2 972.4
05 20.01 ЮВ 4 н/о н/о +41.5 +13.2 19 +41 +41 опасность
перегрева
1003.5 968.8
08 20.01 ЮВ 4 н/о н/о +41.3 +9.5 15 +40 +40 очень
жарко
1001.4 966.8
11 20.01 СВ 6 н/о н/о +36.2 +15.3 29 +38 +38 очень
душно
1004.4 969.7
14 20.01 СЗ 5 н/о н/о +33.7 +17.4 38 +37 +37 очень
душно
1005.6 970.8
17 20.01 С 5 н/о н/о +28.1 +20.1 62 +34 +34 очень
душно
1006.5 971.7
20 20.01 З 4 н/о н/о +27.5 +19.8 63 +33 +33 очень
душно
1004.5 969.8
23 20.01 СЗ 2 н/о н/о +32.0 +17.9 43 +36 +36 очень
душно
1006.4 971.6
02 21.01 В 3 н/о н/о +37.4 +14.7 26 +38 +38 душно 1006.2 971.4
05 21.01 СВ 4 н/о н/о +40.0 +15.6 24 +41 +41 опасность
перегрева
1003.3 968.6
08 21.01 СВ 5 н/о н/о +38.3 +14.8 25 +39 +39 очень
душно
1001.8 967.2
11 21.01 С 5 н/о н/о +33.2 +16.1 36 +36 +36 очень
душно
1003.5 968.8
14 21.01 С 4 н/о н/о +30.8 +18.5 48 +36 +36 очень
душно
1006.7 971.9
17 21.01 С 4 н/о н/о +30.0 +18.8 51 +35 +35 очень
душно
1005.1 970.4
20 21.01 С 2 н/о н/о +28.6 +19.5 58 +34 +34 очень
душно
1005.8 971.0
23 21.01 С 5 н/о н/о +31.0 +20.3 53 +38 +38 очень
душно
1006.8 972.0
02 22.01 СВ 5 н/о н/о +36.5 +16.1 30 +39 +39 очень
душно
1006.6 971.8
05 22.01 СВ 5 н/о н/о +38.1 +13.3 23 +38 +38 очень
жарко
1003.9 969.2
08 22.01 В 6 н/о н/о +40.0 +12.0 19 +39 +39 очень
жарко
1002.1 967.5

 

Местоположение метеостанции Ладжаману (Северная территория, Австралия): широта -18.33 долгота 130.63 высота над уровнем моря 317 м.

В архиве по умолчанию представлена погода в Ладжаману за последнюю неделю. Архивные данные за месяц целиком и за предыдущие месяцы, начиная с января 2011 года, Вы можете получить, выбрав интересующий диапазон дат из раскрывающегося списка и нажав кнопку "Ввод!".


*Определитесь, кто Вы:
робот инопланетянин человек

Внимание! Время в таблицах - всемирное. Для получения местного времени необходимо прибавить поправку, которая равна 9.5 ч.

Смотрите также архив погоды в соседних городах и на ближайших метеорологических станциях:

Погода в Раббит Флат (Северная территория, Австралия) (216 км)
Погода в Виктория-Ривер (Северная территория, Австралия) (219 км)
Погода в Аэропорту Аргайл (Западная Австралия, Австралия) (299 км)
Погода в Холс Крик (Западная Австралия, Австралия) (314 км)
Погода на Базе ВВС Delamere Weapons Range (Северная территория, Австралия) (318 км)
Погода в Кунунарре (Западная Австралия, Австралия) (349 км)
Погода в Дейли Уотерс (Северная территория, Австралия) (372 км)
Погода в Манбуллу Ксиро (Северная территория, Австралия) (376 км)
Погода в Теннант-Крике (Северная территория, Австралия) (400 км)
Погода в Уиндеме (Западная Австралия, Австралия) (411 км)

Пояснения к столбцам:

Ветер - указаны скорость ветра в м/с - средняя за 10 мин, порывы в срок и между сроками (в фигурных скобках) и направление, откуда дует ветер: С - северный, СВ - северо-восточный, В - восточный, ЮВ - юго-восточный, Ю - южный, ЮЗ - юго-западный, З - западный, СЗ - северо-западный.
Видимость - горизонтальная дальность видимости в метрах или километрах. При видимости от 1 до 10 км при отсутствии осадков обычно наблюдается дымка, при ухудшении видимости до 1 км и менее - туман. В сухую погоду видимость может ухудшаться дымом, пылью или мглою.
Явления - указаны атмосферные явления, наблюдавшиеся в срок или в последний час перед сроком; фигурными скобками обозначены явления, наблюдавшиеся между сроками (за 1-3 часа до срока); квадратными скобками обозначены град или гололедные отложения с указанием их диаметра в мм.
Облачность - указаны через наклонную черту общая и нижняя облачность в баллах и высота нижней границы облаков в метрах; квадратными скобками обозначены формы облаков: Ci - перистые, Cs - перисто-слоистые, Cc - перисто-кучевые, Ac - высококучевые, As - высокослоистые, Sc - слоисто-кучевые, Ns - слоисто-дождевые, Cu - кучевые, Cb - кучево-дождевые. Подробнее классификацию облаков см. в Атласе облаков (PDF).
T - Температура воздуха - температура, измеренная на высоте 2 м над землей.
Td - Температура точки росы - температура, при понижении до которой содержащийся в воздухе водяной пар достигнет насыщения.
f - Относительная влажность воздуха - влажноcть воздуха, измеренная на высоте 2 м над землей.
Te - Эффективная температура - температура, которую ощущает одетый по сезону человек в тени. Характеристика душности погоды. При расчете учитывается влияние влажности воздуха и скорости ветра на теплоощущения человека.
Tes - Эффективная температура на солнце - температура, которую ощущает человек, с поправкой на солнечный нагрев. Характеристика знойности погоды. Зависит от высоты солнца над горизонтом, облачности и скорости ветра. Ночью, в пасмурную погоду, а также при ветре 12 м/с и более поправка равна нулю.
P - Атмосферное давление - приведенное к уровню моря атмосферное давление.
Po - Атмосферное давление - измеренное на уровне метеостанции атмосферное давление.
Tmin - Минимальная температура - минимум температуры воздуха на высоте 2 м над землей.
Tmax - Максимальная температура - максимум температуры воздуха на высоте 2 м над землей.
R - Количество осадков - Количество выпавших осадков за период времени, мм. При наведении курсора мыши на число - период времени, за который выпало указанное количество осадков.
R24 - Количество осадков - Количество выпавших осадков за 24 часа, мм.
S - Снежный покров - Высота снежного покрова, см. При наведении курсора мыши на число - состояние снежного покрова и степень покрытия местности в баллах.